(466277) = 2006 LC7 = 2013 PH

Discovered at Kitt Peak on 2003-11-19 by Spacewatch.

Orbit

Orbit type: Mars-crosser

Note: WebGL enabled browser required.

epoch2023-09-13.0
epoch JD2460200.5
perihelion date2020-05-02.49337
perihelion JD2458971.99337
argument of perihelion (°)40.02213
ascending node (°)274.89023
inclination (°)9.57715
eccentricity0.2664014
perihelion distance (AU)1.6645119
Tisserand w.r.t. Jupiter3.5
ΔV w.r.t. Earth (km/sec)8.4
semimajor axis (AU)2.2689682
mean anomaly (°)354.27357
mean daily motion (°/day)0.28837740
aphelion distance (AU)2.873
period (years)3.42
P-vector [x]0.69709399
P-vector [y]-0.69300989
P-vector [z]-0.18384031
Q-vector [x]0.69755310
Q-vector [y]0.59624923
Q-vector [z]0.39737455
absolute magnitude17.64
phase slope0.15
uncertainty0
referenceMPEC 2023-X25
observations used255
oppositions9
arc length (days)7319
first opposition used2003
last opposition used2023
residual rms (arc-secs)0.74
perturbers coarse indicatorM-v
perturbers precise indicator003Ek
first observation date used2003-11-19.0
last observation date used2023-12-03.0
computer nameMPCLINUX
Minimum Orbit Intersection Distances (in AU)
for orbit epoch: 2460200.5, reference: E2023-X25
Mercury1.24516
Venus0.95071
Earth0.6624
Mars0.29781
Jupiter2.43136
Saturn6.28379
Uranus15.6634
Neptune27.3933

Observations

258 total observations over interval: 2003 11 19.33609 – 2023 12 03.214722
These data are available for download (format description).

Date (UT) J2000 RA J2000 Dec Magn Location Ref
2003 11 19.33609 02 57 40.70 +29 04 37.7 20.6 V 691 – Steward Observatory, Kitt Peak-Spacewatch MPS 474439
2003 11 19.36830 02 57 38.54 +29 04 17.7 20.6 V 691 – Steward Observatory, Kitt Peak-Spacewatch MPS 474439
2003 11 19.39524 02 57 36.73 +29 04 00.9 21.1 V 691 – Steward Observatory, Kitt Peak-Spacewatch MPS 474439
2003 12 01.06867 02 46 49.00 +27 02 43.3 21.2 V 691 – Steward Observatory, Kitt Peak-Spacewatch MPS 474439
2003 12 01.09560 02 46 47.74 +27 02 27.0 20.6 V 691 – Steward Observatory, Kitt Peak-Spacewatch MPS 474439
2003 12 01.12274 02 46 46.50 +27 02 11.1 21.2 V 691 – Steward Observatory, Kitt Peak-Spacewatch MPS 474439
2006 06 07.69296 19 40 30.25 -22 09 53.2 18.8 V E12 – Siding Spring Survey MPS 174020
2006 06 07.69987 19 40 30.36 -22 09 48.8 17.9 V E12 – Siding Spring Survey MPS 174020
2006 06 07.70677 19 40 30.28 -22 09 44.4 19.4 V E12 – Siding Spring Survey MPS 174020
2006 06 07.71365 19 40 30.18 -22 09 41.1 19.1 V E12 – Siding Spring Survey MPS 174020
2006 06 22.31300 19 36 01.97 -19 42 21.7 18.4 R 644 – Palomar Mountain/NEAT MPS 174020
2006 06 22.33383 19 36 01.16 -19 42 08.5 18.5 R 644 – Palomar Mountain/NEAT MPS 174020
2006 06 22.35464 19 36 00.35 -19 41 55.5 18.5 R 644 – Palomar Mountain/NEAT MPS 174020
2013 06 05.40620 22 33 29.30 -02 44 25.1 20.2 V G96 – Mt. Lemmon Survey MPS 474439
2013 06 05.41162 22 33 29.80 -02 44 18.8 20.1 V G96 – Mt. Lemmon Survey MPS 474439
2013 06 05.41705 22 33 30.34 -02 44 12.9 20.4 V G96 – Mt. Lemmon Survey MPS 474439
2013 06 05.42250 22 33 30.85 -02 44 06.3 20.6 V G96 – Mt. Lemmon Survey MPS 474439
2013 07 30.29910 23 28 59.49 +13 36 57.8 19.4 r I41 – Palomar Mountain--ZTF MPS 474439
2013 07 30.33896 23 28 59.81 +13 37 32.2 19.5 r I41 – Palomar Mountain--ZTF MPS 474439
2013 07 30.37607 23 29 00.09 +13 38 03.9 19.7 r I41 – Palomar Mountain--ZTF MPS 474439
2013 08 01.29351 23 29 16.50 +14 04 41.6 19.9 r I41 – Palomar Mountain--ZTF MPS 473127
2013 08 01.34857 23 29 16.70 +14 05 27.0 19.2 r I41 – Palomar Mountain--ZTF MPS 473127
2013 08 01.38528 23 29 16.81 +14 05 57.2 19.7 r I41 – Palomar Mountain--ZTF MPS 473127
2013 08 02.28651 23 29 21.62 +14 18 04.9 19.2 r I41 – Palomar Mountain--ZTF MPS 473127
2013 08 02.38194 23 29 21.71 +14 19 22.0 19.4 r I41 – Palomar Mountain--ZTF MPS 473127
2013 08 02.42732 23 29 21.72 +14 19 58.4 19.6 r I41 – Palomar Mountain--ZTF MPS 473127
2013 08 08.36579 23 29 03.60 +15 33 27.7 19.2 r I41 – Palomar Mountain--ZTF MPS 474439
2013 08 08.42057 23 29 02.88 +15 34 05.4 19.5 r I41 – Palomar Mountain--ZTF MPS 474439
2013 08 08.45723 23 29 02.38 +15 34 30.4 19.2 r I41 – Palomar Mountain--ZTF MPS 474439
2013 08 14.93062 23 27 12.14 +16 40 18.0 19.3 V D00 – ASC-Kislovodsk Observatory MPS 474439
2013 08 14.94183 23 27 11.89 +16 40 23.4 19.5 V D00 – ASC-Kislovodsk Observatory MPS 474439
2013 08 14.95295 23 27 11.61 +16 40 29.6 19.6 V D00 – ASC-Kislovodsk Observatory MPS 474439
2013 08 14.96406 23 27 11.26 +16 40 36.0 19.3 V D00 – ASC-Kislovodsk Observatory MPS 474439
2013 08 14.97632 23 27 10.98 +16 40 40.9 19.5 V D00 – ASC-Kislovodsk Observatory MPS 474439
2013 08 14.98750 23 27 10.62 +16 40 48.4 19.2 V D00 – ASC-Kislovodsk Observatory MPS 474439
2013 08 14.99862 23 27 10.38 +16 40 54.3 19.4 V D00 – ASC-Kislovodsk Observatory MPS 474439
2013 08 15.00980 23 27 10.00 +16 41 00.5 19.4 V D00 – ASC-Kislovodsk Observatory MPS 474439
2013 08 28.24804 23 19 15.17 +18 00 31.6 18.8 V 703 – Catalina Sky Survey MPS 474439
2013 08 28.25526 23 19 14.83 +18 00 32.8 18.9 V 703 – Catalina Sky Survey MPS 474439
2013 08 28.26255 23 19 14.44 +18 00 34.0 18.7 V 703 – Catalina Sky Survey MPS 474439
2013 08 28.26976 23 19 14.08 +18 00 35.7 18.9 V 703 – Catalina Sky Survey MPS 474439
2013 08 30.51316 23 17 27.760 +18 06 02.22 18.8 r F51 – Pan-STARRS 1, Haleakala MPS 475033
2013 08 30.51438 23 17 27.697 +18 06 02.32 18.8 r F51 – Pan-STARRS 1, Haleakala MPS 475033
2013 08 30.52454 23 17 27.164 +18 06 03.43 19.0 r F51 – Pan-STARRS 1, Haleakala MPS 475033
2013 08 30.52575 23 17 27.098 +18 06 03.54 18.9 r F51 – Pan-STARRS 1, Haleakala MPS 475033
2013 08 30.54289 23 17 26.196 +18 06 05.30 18.8 i F51 – Pan-STARRS 1, Haleakala MPS 475033
2013 08 30.54421 23 17 26.130 +18 06 05.46 18.9 i F51 – Pan-STARRS 1, Haleakala MPS 475033
2013 08 30.55462 23 17 25.584 +18 06 06.50 18.9 i F51 – Pan-STARRS 1, Haleakala MPS 475033
2013 08 31.31789 23 16 49.03 +18 07 19.7 18.5 R G58 – Chabot Space and Science Center, Oakland MPS 475033
2013 08 31.32976 23 16 48.39 +18 07 21.0 18.5 R G58 – Chabot Space and Science Center, Oakland MPS 475033
2013 08 31.33888 23 16 47.91 +18 07 21.8 18.7 R G58 – Chabot Space and Science Center, Oakland MPS 475033
2013 09 04.30211 23 13 27.88 +18 09 28.8 19.5 V 703 – Catalina Sky Survey MPS 475033
2013 09 04.30673 23 13 27.62 +18 09 29.4 18.8 V 703 – Catalina Sky Survey MPS 475033
2013 09 04.31113 23 13 27.41 +18 09 29.2 18.9 V 703 – Catalina Sky Survey MPS 475033
2013 09 04.31561 23 13 27.11 +18 09 29.2 18.6 V 703 – Catalina Sky Survey MPS 475033
2013 09 15.19168 23 04 08.66 +17 39 09.8 19.2 V 703 – Catalina Sky Survey MPS 476478
2013 09 15.19666 23 04 08.42 +17 39 07.9 18.3 V 703 – Catalina Sky Survey MPS 476478
2013 09 15.20168 23 04 08.14 +17 39 06.7 18.9 V 703 – Catalina Sky Survey MPS 476478
2013 09 15.20670 23 04 07.74 +17 39 05.3 18.3 V 703 – Catalina Sky Survey MPS 476478
2013 09 26.26121 22 56 19.68 +16 25 55.3 19.1 V 703 – Catalina Sky Survey MPS 477816
2013 09 26.26768 22 56 19.44 +16 25 52.4 18.8 V 703 – Catalina Sky Survey MPS 477816
2013 09 26.27427 22 56 19.18 +16 25 49.5 19.1 V 703 – Catalina Sky Survey MPS 477816
2013 09 26.28083 22 56 18.95 +16 25 45.3 18.9 V 703 – Catalina Sky Survey MPS 477816
2013 10 07.26063 22 52 01.83 +14 51 08.5 19.6 V 703 – Catalina Sky Survey MPS 480239
2013 10 07.26565 22 52 01.80 +14 51 06.0 19.4 V 703 – Catalina Sky Survey MPS 480239
2013 10 07.27071 22 52 01.72 +14 51 03.6 19.6 V 703 – Catalina Sky Survey MPS 480239
2013 10 07.27580 22 52 01.56 +14 51 01.0 19.5 V 703 – Catalina Sky Survey MPS 480239
2013 10 24.14019 22 53 56.49 +12 30 13.9 19.9 r I41 – Palomar Mountain--ZTF MPS 482460
2013 10 24.16492 22 53 57.02 +12 30 03.0 20.1 r I41 – Palomar Mountain--ZTF MPS 482460
2013 10 24.20991 22 53 58.01 +12 29 43.4 19.8 r I41 – Palomar Mountain--ZTF MPS 482460
2013 10 25.10765 22 54 21.46 +12 23 15.0 19.7 r I41 – Palomar Mountain--ZTF MPS 483743
2013 10 25.13528 22 54 22.13 +12 23 03.2 19.8 r I41 – Palomar Mountain--ZTF MPS 483743
2013 10 25.17499 22 54 23.06 +12 22 46.4 20.0 r I41 – Palomar Mountain--ZTF MPS 483743
2013 10 26.44446 22 54 58.95 +12 13 52.4 20.6 R D29 – Purple Mountain Observatory, XuYi Station MPS 483743
2013 10 26.46435 22 54 59.47 +12 13 43.8 20.7 R D29 – Purple Mountain Observatory, XuYi Station MPS 483743
2013 10 26.48423 22 55 00.00 +12 13 36.0 20.7 R D29 – Purple Mountain Observatory, XuYi Station MPS 483743
2013 11 02.14604 22 58 57.95 +11 31 54.9 20.1 r I41 – Palomar Mountain--ZTF MPS 485356
2013 11 02.17228 22 58 58.96 +11 31 46.1 20.1 r I41 – Palomar Mountain--ZTF MPS 485356
2013 11 02.20785 22 59 00.35 +11 31 34.1 19.9 r I41 – Palomar Mountain--ZTF MPS 485356
2014 12 18.50784 08 59 05.304 +11 31 46.59 21.9 w F51 – Pan-STARRS 1, Haleakala MPS 553246
2014 12 18.51931 08 59 04.958 +11 31 45.27 21.8 w F51 – Pan-STARRS 1, Haleakala MPS 553246
2014 12 18.54209 08 59 04.300 +11 31 42.49 21.7 w F51 – Pan-STARRS 1, Haleakala MPS 553246
2016 03 07.55034 14 55 39.058 -29 29 07.83 21.3 w F51 – Pan-STARRS 1, Haleakala MPS 690254
2016 03 07.56065 14 55 39.311 -29 29 11.53 21.3 w F51 – Pan-STARRS 1, Haleakala MPS 690254
2016 03 07.57096 14 55 39.531 -29 29 14.99 21.6 w F51 – Pan-STARRS 1, Haleakala MPS 690254
2016 04 11.45598 14 51 18.110 -31 11 09.71 20.6 w F51 – Pan-STARRS 1, Haleakala MPS 701246
2016 04 11.46694 14 51 17.610 -31 11 09.37 20.6 w F51 – Pan-STARRS 1, Haleakala MPS 701246
2016 04 11.47790 14 51 17.108 -31 11 08.81 20.6 w F51 – Pan-STARRS 1, Haleakala MPS 701246
2016 04 11.48889 14 51 16.597 -31 11 08.26 20.5 w F51 – Pan-STARRS 1, Haleakala MPS 701246
2016 04 27.41009 14 36 40.012 -30 20 37.24 19.6 i F51 – Pan-STARRS 1, Haleakala MPS 706033
2016 04 27.42130 14 36 39.259 -30 20 33.58 19.8 i F51 – Pan-STARRS 1, Haleakala MPS 706033
2016 04 27.43231 14 36 38.507 -30 20 29.91 19.9 i F51 – Pan-STARRS 1, Haleakala MPS 706033
2016 04 27.44329 14 36 37.771 -30 20 26.17 19.7 i F51 – Pan-STARRS 1, Haleakala MPS 706033
